Location: Bouchavesnes-Bergen
(49.9859°N, 2.9203°E)
Time: 00:07:21
(UTC+00:00)

Meteor 1-11 Rocket - Pass Details

Date: 09 March 2021
Orbit: 831 x 916 km, 81.2° (Epoch: 13 April)

Event Time Altitude Azimuth Distance (km) Brightness Sun altitude
Rises 05:35:34 0° 348° (NNW) 3,389 6.7 -7.1°
Reaches altitude 10° 05:37:59 10° 350° (N) 2,451 6.0 -6.7°
Maximum altitude 05:43:32 76° 77° (ENE) 867 4.0 -5.8°
Drops below altitude 10° 05:49:05 10° 163° (SSE) 2,458 6.4 -4.9°
Sets 05:51:31 0° 165° (SSE) 3,399 7.1 -4.5°
